Location: Владивосток
(43.1151°N, 131.8856°E)
Time: 22:06:50
(UTC+10:00)

DX 1 - Pass Details

Date: 30 June 2022
Orbit: 617 x 629 km, 98.4° (Epoch: 11 August)

Event Time Altitude Azimuth Distance (km) Brightness Sun altitude
Rises 22:35:26 0° 11° (N) 2,930 ? -14.1°
Reaches altitude 10° 22:37:39 10° 10° (N) 2,017 ? -14.4°
Maximum altitude 22:42:01 74° 286° (WNW) 659 ? -14.8°
Drops below altitude 10° 22:46:21 10° 202° (SSW) 1,995 ? -15.3°
Enters shadow 22:46:39 - 201° (SSW) 2,114 ? -15.3°
